Location: Les Coudrans
(46.1056°N, 1.1158°W)
Time: 18:42:32
(UTC+00:00)

SJ 16-02 - Pass Details

Date: 03 March 2021
Orbit: 605 x 617 km, 75.0° (Epoch: 15 April)

Event Time Altitude Azimuth Distance (km) Brightness Sun altitude
Rises 19:34:05 0° 350° (N) 2,883 5.1 -18.1°
Reaches altitude 10° 19:36:42 10° 4° (N) 1,976 4.0 -18.6°
Enters shadow 19:39:28 22° 42° (NE) 1,337 2.8 -19.0°
